Meteopurmerend
purmerend
Purmerend - Baaienwijk



My webcam  My webcam


waarschuwing voor Onweer Meer informatie blitzortung!


Regen radar Meer informatie rain snow radar


Bezoek onze andere website:

CandyAppleRed WebdesignWebdesign Purmerend Candy Apple Red

MeteopurmerendBlog

Template documentation
and downloads



Onweer van: 19-06-2019 10:00 tot: 23:00 waarschuwing voor: Onweer niveau: Geel info button
Enkele onweersbuien, mogelijk met hagel en windstoten tot ca. 75 km/uur.Verkeer en buitenactiviteiten kunnen hinder ondervinden.Mijd open water en open gebied, schuil niet onder bomen.Volg weerberichten en waarschuwingen.

15 daagse weersverwachting Molde (NO)

  • Overzicht
  • Per uur
  • 15 dagen
  • Extra
  • Vergelijk
  • Kaarten
  • Dagkaart
  • Meer »
  • Info
  • Statistieken
  • Directe link
    Temp 6h Neerslag Wind  
 03:32     23:37    Daglengte: 20:05 Vandaag
14:00
16°
 
2
20:00
16°
 
3
 03:33     23:37    Daglengte: 20:04 Morgen
02:00
13°
 
2
08:00
15°
 
1
14:00
17°
 
4
20:00
14°
 
4
 03:33     23:38    Daglengte: 20:05 Vrijdag 21 Jun
02:00
12°
1.0 mm
3
08:00
12°
3.5 mm
2
14:00
14°
0.9 mm
4
20:00
13°
5.7 mm
6
 03:33     23:38    Daglengte: 20:05 Zaterdag 22 Jun
02:00
10°
5.9 mm
5
08:00
11°
8.0 mm
7
Locatie info
Region: Møre og Romsdal
Latitude: 62.7375°N
Longitude: 7.1591°E
3 masl
Temp/Neerslag /Baro Onweer/Dauwpunt
    Temp Baro 1h Neerslag Dauwpunt Wind UV Bewolking  
 03:32     23:37    Daglengte: 20:05 Vandaag
14:00
16°
1009.8 hPa
48%
10.1°
2
Windvlaag: 3 m/s
35%
15:00
16°
1009.8 hPa
63%
10.2°
2
Windvlaag: 2.1 m/s
42%
16:00
17°
1009.8 hPa
64%
10.2°
2
Windvlaag: 1.3 m/s
31%
17:00
17°
1009.4 hPa
69%
10.7°
3
Windvlaag: 2.8 m/s
29%
18:00
17°
1008.9 hPa
70%
10.6°
2
Windvlaag: 2.4 m/s
32%
19:00
17°
1008.5 hPa
63%
10.5°
2
Windvlaag: 1.8 m/s
41%
20:00
16°
1008.2 hPa
18%
10.4°
3
Windvlaag: 2.5 m/s
58%
21:00
16°
1008.1 hPa
14%
10.1°
3
Windvlaag: 2.9 m/s
28%
22:00
15°
1007.8 hPa
25%
10.0°
3
Windvlaag: 3.1 m/s
38%
23:00
15°
1007.4 hPa
80%
10.4°
2
Windvlaag: 3 m/s
43%
 03:33     23:37    Daglengte: 20:04 Morgen
00:00
14°
1007.0 hPa
82%
10.2°
2
Windvlaag: 2.6 m/s
50%
01:00
14°
1006.3 hPa
82%
10.4°
2
Windvlaag: 2.2 m/s
44%
02:00
13°
1005.6 hPa
69%
10.4°
2
Windvlaag: 2.4 m/s
42%
03:00
13°
1005.0 hPa
21%
10.2°
2
Windvlaag: 2.3 m/s
52%
04:00
13°
1004.4 hPa
14%
10.0°
1
Windvlaag: 1.9 m/s
40%
05:00
13°
1003.7 hPa
14%
9.5°
1
Windvlaag: 1.7 m/s
17%
06:00
14°
1003.0 hPa
14%
8.8°
1
Windvlaag: 1.2 m/s
62%
07:00
14°
1002.3 hPa
15%
9.1°
1
Windvlaag: 1.4 m/s
86%
08:00
15°
1001.8 hPa
82%
9.8°
1
Windvlaag: 1.4 m/s
85%
09:00
15°
1001.4 hPa
82%
9.7°
1
Windvlaag: 0.9 m/s
81%
10:00
16°
1001.3 hPa
82%
10.0°
1
Windvlaag: 0.7 m/s
81%
11:00
16°
1000.9 hPa
82%
10.2°
2
Windvlaag: 0.5 m/s
84%
12:00
17°
1001.0 hPa
82%
10.2°
2
Windvlaag: 1.3 m/s
80%
13:00
17°
1001.0 hPa
82%
10.2°
3
Windvlaag: 2.1 m/s
77%
14:00
17°
1001.3 hPa
82%
9.7°
4
Windvlaag: 3.9 m/s
68%
15:00
16°
1001.8 hPa
82%
9.8°
5
Windvlaag: 5.3 m/s
71%
16:00
16°
1002.2 hPa
82%
10.0°
5
Windvlaag: 6 m/s
70%
17:00
15°
1002.6 hPa
79%
10.3°
5
Windvlaag: 5.9 m/s
64%
18:00
14°
1002.9 hPa
82%
10.8°
4
Windvlaag: 5.1 m/s
81%
19:00
14°
1003.0 hPa
80%
11.1°
3
Windvlaag: 3.8 m/s
83%
20:00
14°
1003.3 hPa
80%
10.2°
4
Windvlaag: 5.2 m/s
83%
21:00
13°
1003.5 hPa 0.5 mm
82%
10.2°
3
Windvlaag: 4.7 m/s
81%
22:00
13°
1003.6 hPa 0.5 mm
82%
10.1°
2
Windvlaag: 3 m/s
65%
23:00
13°
1004.0 hPa
80%
10.0°
2
Windvlaag: 1.7 m/s
42%
 03:33     23:38    Daglengte: 20:05 Vrijdag 21 Jun
00:00
12°
1004.3 hPa
34%
10.1°
2
Windvlaag: 1.9 m/s
55%
01:00
12°
1004.6 hPa
65%
10.1°
2
Windvlaag: 1.9 m/s
69%
02:00
12°
1004.9 hPa
79%
10.0°
3
Windvlaag: 2.8 m/s
53%
03:00
12°
1005.2 hPa
79%
9.7°
3
Windvlaag: 3 m/s
61%
04:00
12°
1005.5 hPa
82%
9.1°
3
Windvlaag: 3.4 m/s
58%
05:00
12°
1005.7 hPa 1.1 mm
82%
8.2°
3
Windvlaag: 3.1 m/s
34%
06:00
12°
1005.8 hPa 1.2 mm
82%
7.4°
2
Windvlaag: 2.4 m/s
21%
07:00
12°
1005.7 hPa 0.7 mm
82%
7.6°
2
Windvlaag: 2 m/s
19%
08:00
12°
1005.8 hPa 0.5 mm
81%
7.1°
2
Windvlaag: 2.2 m/s
18%
09:00
13°
1006.0 hPa
82%
6.9°
2
Windvlaag: 2.6 m/s
30%
10:00
14°
1006.2 hPa
81%
7.7°
2
Windvlaag: 2.4 m/s
49%
11:00
14°
1006.0 hPa
100%
6.8°
1
Windvlaag: 2.2 m/s
23%
12:00
15°
1006.2 hPa
100%
7.1°
4
Windvlaag: 6 m/s
35%
13:00
15°
1006.3 hPa
100%
7.5°
3
Windvlaag: 5.6 m/s
50%
14:00
14°
1006.7 hPa 0.9 mm
100%
9.3°
4
Windvlaag: 6.8 m/s
59%
15:00
15°
1006.7 hPa
100%
7.8°
5
Windvlaag: 7.8 m/s
70%
16:00
13°
1007.5 hPa 1.6 mm
100%
9.4°
3
Windvlaag: 7.8 m/s
90%
17:00
14°
1007.4 hPa
100%
9.2°
3
Windvlaag: 2.5 m/s
91%
18:00
13°
1007.6 hPa 1.1 mm
100%
7.2°
6
Windvlaag: 7.5 m/s
92%
19:00
13°
1007.8 hPa 1.3 mm
100%
6.8°
5
Windvlaag: 7.2 m/s
89%
20:00
13°
1008.1 hPa 1.6 mm
100%
6.8°
6
Windvlaag: 7.6 m/s
86%
21:00
12°
1008.6 hPa 1.1 mm
100%
7.5°
6
Windvlaag: 9.1 m/s
80%
22:00
12°
1009.0 hPa 1.0 mm
100%
7.2°
5
Windvlaag: 8.4 m/s
63%
23:00
11°
1009.4 hPa 1.2 mm
100%
6.9°
5
Windvlaag: 7.8 m/s
64%
 03:33     23:38    Daglengte: 20:05 Zaterdag 22 Jun
00:00
11°
1009.9 hPa 0.9 mm
100%
7.3°
5
Windvlaag: 8.1 m/s
59%
01:00
11°
1010.4 hPa 0.8 mm
100%
7.4°
6
Windvlaag: 8.7 m/s
90%
02:00
10°
1010.8 hPa 0.9 mm
100%
7.1°
5
Windvlaag: 9.2 m/s
78%
03:00
10°
1010.9 hPa 1.7 mm
100%
7.2°
6
Windvlaag: 3.9 m/s
74%
04:00
10°
1011.1 hPa 1.1 mm
94%
7.2°
6
Windvlaag: 4.9 m/s
78%
05:00
10°
1011.3 hPa 1.7 mm
92%
7.3°
7
Windvlaag: 5.3 m/s
75%
06:00
11°
1011.5 hPa 1.7 mm
54%
7.2°
7
Windvlaag: 5.6 m/s
72%
07:00
11°
1011.6 hPa
100%
7.2°
7
Windvlaag: 6 m/s
70%
08:00
11°
1011.8 hPa 1.7 mm
100%
7.3°
7
Windvlaag: 3 m/s
72%
09:00
11°
1012.0 hPa 1.7 mm
100%
7.2°
8
Windvlaag: 18.4 m/s
46% warningclass
10:00
12°
1012.4 hPa 1.7 mm
100%
7.4°
8
Windvlaag: 17.4 m/s
48% warningclass
11:00
12°
1012.9 hPa 1.8 mm
100%
7.6°
8
Windvlaag: 18 m/s
67% warningclass
12:00
12°
1013.3 hPa 1.8 mm
100%
7.7°
8
Windvlaag: 18.2 m/s
47% warningclass
13:00
13°
1013.7 hPa 1.8 mm
100%
7.9°
9
Windvlaag: 17.3 m/s
73% warningclass
Temp/Neerslag /Baro Onweer/Dauwpunt
    Temp Baro Neerslag Dauwpunt Wind Bewolking  
 03:32     23:37    Daglengte: 20:05 Vandaag
14:00
16°
1009.8 hPa   10.1°
2
35%
17:00
17°
1009.4 hPa   10.7°
3
29%
20:00
16°
1008.2 hPa   10.4°
3
58%
23:00
15°
1007.4 hPa   10.4°
2
43%
 03:33     23:37    Daglengte: 20:04 Morgen
02:00
13°
1005.6 hPa   10.4°
2
42%
05:00
13°
1003.7 hPa   9.5°
1
17%
08:00
15°
1001.8 hPa   9.8°
1
85%
11:00
16°
1000.9 hPa   10.2°
2
84%
14:00
17°
1001.3 hPa   9.7°
4
68%
17:00
15°
1002.6 hPa   10.3°
5
64%
20:00
14°
1003.3 hPa   10.2°
4
83%
23:00
13°
1004.0 hPa 1.0 mm 10.0°
2
42%
 03:33     23:38    Daglengte: 20:05 Vrijdag 21 Jun
02:00
12°
1004.9 hPa   10.0°
3
53%
05:00
12°
1005.7 hPa 1.1 mm 8.2°
3
34%
08:00
12°
1005.8 hPa 2.3 mm 7.1°
2
18%
11:00
14°
1006.0 hPa   6.8°
1
23%
14:00
14°
1006.7 hPa 0.9 mm 9.3°
4
59%
17:00
14°
1007.4 hPa 1.6 mm 9.2°
3
91%
20:00
13°
1008.1 hPa 4.1 mm 6.8°
6
86%
23:00
11°
1009.4 hPa 3.2 mm 6.9°
5
64%
 03:33     23:38    Daglengte: 20:05 Zaterdag 22 Jun
02:00
10°
1010.8 hPa 2.7 mm 7.1°
5
78%
05:00
10°
1011.3 hPa 4.6 mm 7.3°
7
75%
08:00
11°
1011.8 hPa 3.4 mm 7.3°
7
72%
11:00
12°
1012.9 hPa 5.2 mm 7.6°
8
67% warningclass
14:00
13°
1014.1 hPa 5.4 mm 8.0°
9
40%
17:00
12°
1015.5 hPa 21.7 mm 8.7°
8
83%
20:00
11°
1016.0 hPa 22.4 mm 8.9°
8
90%
23:00
11°
1017.0 hPa 22.9 mm 8.5°
8
91%
 03:33     23:38    Daglengte: 20:05 Zondag 23 Jun
02:00
10°
1018.0 hPa 23.2 mm 8.0°
7
92%
05:00
10°
1019.2 hPa 23.6 mm 8.2°
7
92%
08:00
10°
Voelt als: 7.0°
1020.4 hPa 25.0 mm 8.4°
7
91%
11:00
11°
1022.1 hPa 26.3 mm 9.0°
6
91%
14:00
12°
1023.8 hPa 27.1 mm 9.6°
6
90%
17:00
12°
1025.3 hPa 27.4 mm 8.9°
6
84%
20:00
12°
1026.7 hPa 27.5 mm 8.4°
5
78%
23:00
11°
1027.8 hPa 27.6 mm 7.9°
3
77%
 03:34     23:37    Daglengte: 20:03 Maandag 24 Jun
02:00
10°
Voelt als: 8.7°
1028.8 hPa 27.6 mm 7.4°
2
77%
05:00
10°
1028.8 hPa 27.7 mm 7.5°
2
81%
08:00
11°
1028.8 hPa 27.7 mm 7.6°
2
86%
11:00
12°
1029.3 hPa 27.7 mm 8.1°
3
88%
14:00
14°
1029.8 hPa 27.7 mm 8.5°
3
90%
17:00
13°
1029.9 hPa 27.7 mm 8.3°
3
88%
20:00
13°
1030.0 hPa 27.7 mm 8.1°
3
87%
23:00
11°
1030.1 hPa 27.7 mm 8.0°
3
88%
 03:35     23:37    Daglengte: 20:02 Dinsdag 25 Jun
02:00
Voelt als: 7.7°
1030.2 hPa 27.7 mm 7.8°
3
90%
05:00
10°
1029.4 hPa 27.7 mm 8.0°
2
89%
08:00
11°
1028.6 hPa 27.7 mm 8.2°
2
89%
11:00
14°
1028.2 hPa 27.7 mm 9.9°
3
84%
14:00
17°
1027.8 hPa 27.7 mm 11.5°
3
78%
17:00
16°
1027.5 hPa 27.7 mm 11.1°
3
73%
20:00
15°
1027.3 hPa 27.7 mm 10.5°
3
68%
23:00
12°
1027.1 hPa 27.7 mm 9.8°
2
78%
 03:36     23:37    Daglengte: 20:01 Woensdag 26 Jun
02:00
10°
1026.9 hPa 27.7 mm 8.9°
2
88%
05:00
11°
1026.6 hPa 27.7 mm 8.9°
2
89%
08:00
12°
1026.2 hPa 27.7 mm 8.9°
2
90%
11:00
14°
1025.9 hPa   9.4°
3
80%
14:00
15°
1025.5 hPa 55.4 mm 9.9°
3
70%
20:00
13°
1025.0 hPa 55.4 mm 8.7°
2
80%
 03:36     23:36    Daglengte: 20:00 Donderdag 27 Jun
02:00
10°
1023.3 hPa 55.4 mm 8.4°
2
90%
08:00
12°
1021.4 hPa 55.4 mm 8.6°
3
90%
14:00
14°
1020.1 hPa 55.4 mm 9.5°
4
87%
20:00
12°
1020.3 hPa 55.4 mm 8.4°
4
76%
 03:37     23:36    Daglengte: 19:59 Vrijdag 28 Jun
02:00
10°
1018.0 hPa 55.4 mm 8.4°
2
82%
08:00
11°
1017.4 hPa 55.4 mm 7.8°
2
87%
14:00
14°
1016.9 hPa 55.4 mm 8.0°
4
78%
20:00
12°
1017.6 hPa 55.4 mm 7.9°
4
85%
 03:39     23:35    Daglengte: 19:56 Zaterdag 29 Jun
02:00
12°
1010.3 hPa 55.4 mm 9.5°
2
1%
08:00
13°
1012.6 hPa 0.8 mm 8.8°
1
46%
14:00
17°
1011.8 hPa 0.8 mm 8.8°
2
48%
20:00
15°
1011.9 hPa 1.3 mm 8.8°
3
49%
 03:40     23:34    Daglengte: 19:54 Zondag 30 Jun
02:00
11°
1012.3 hPa 0.7 mm 8.5°
1
38%
08:00
13°
1011.2 hPa 0.3 mm 8.7°
1
46%
14:00
17°
1010.6 hPa 0.7 mm 9.2°
2
56%
20:00
15°
1010.4 hPa 1.2 mm 8.9°
3
48%
 03:41     23:33    Daglengte: 19:52 Maandag 01 Jul
02:00
11°
1011.1 hPa 1.6 mm 8.7°
1
44%
08:00
13°
1010.7 hPa 1.1 mm 8.5°
1
49%
14:00
16°
1010.5 hPa 0.9 mm 8.5°
3
47%
20:00
15°
1010.9 hPa 0.8 mm 8.7°
3
51%
 03:43     23:32    Daglengte: 19:49 Dinsdag 02 Jul
02:00
11°
1011.6 hPa 0.5 mm 8.4°
1
49%
08:00
13°
1011.1 hPa 0.6 mm 8.5°
1
47%
14:00
17°
1010.8 hPa 0.6 mm 8.9°
3
53%
20:00
15°
1011.1 hPa 0.7 mm 8.9°
3
54%
 03:44     23:30    Daglengte: 19:46 Woensdag 03 Jul
02:00
11°
1012.0 hPa 0.5 mm 8.7°
1
45%
08:00
13°
1011.8 hPa 0.5 mm 8.9°
1
48%
14:00
16°
1011.8 hPa 0.6 mm 9.0°
3
51%
20:00
15°
1012.2 hPa 0.6 mm 9.1°
3
50%
 03:46     23:29    Daglengte: 19:43 Donderdag 04 Jul
02:00
11°
1013.3 hPa 0.3 mm 8.7°
1
42%
08:00
13°
1013.4 hPa 0.3 mm 8.4°
1
38%
  CAPE Lifted Index Hail Supercell Tornado SRH 3km CL BTM PRES CL TOP PRES Swiss DWD icon SMHI TS
 03:32     23:37    Daglengte: 20:05 Vandaag
14:00 94 J/kg 2.3 K 0 % 0 % 0 % 0 m²/s² 0 0 3.89 2
15:00 41 J/kg 2.6 K 0 % 0 % 0 % 0 m²/s² 0 0 4.04 1
16:00 12 J/kg 2.9 K 0 % 0 % 0 % 0 m²/s² 0 0 4.67 1
17:00 1 J/kg 2.9 K 0 % 0 % 0 % 0 m²/s² 0 0 4.52 3
18:00 2 J/kg 3.1 K 0 % 0 % 0 % 0 m²/s² 0 0 4.48 2
19:00 2 J/kg 3.0 K 0 % 0 % 0 % 0 m²/s² 0 0 4.14 2
20:00 0 J/kg 3.4 K 0 % 0 % 0 % 0 m²/s² 0 0 4.24 3
21:00 0 J/kg 3.2 K 0 % 0 % 0 % 0 m²/s² 0 0 3.77 3
22:00 0 J/kg 2.4 K 0 % 0 % 0 % 0 m²/s² 0 0 2.85 3
23:00 0 J/kg 1.7 K 0 % 0 % 0 % 0 m²/s² 0 0 2.03 61
 03:33     23:37    Daglengte: 20:04 Morgen
00:00 0 J/kg 1.8 K 0 % 0 % 0 % 0 m²/s² 0 0 2.04 61
01:00 0 J/kg 1.9 K 0 % 0 % 0 % 0 m²/s² 0 0 2.11 3
02:00 0 J/kg 2.4 K 0 % 0 % 0 % 0 m²/s² 0 0 2.73 3
03:00 0 J/kg 2.9 K 0 % 0 % 0 % 0 m²/s² 0 0 3.2 3
04:00 0 J/kg 2.9 K 0 % 0 % 0 % 0 m²/s² 0 0 3.23 3
05:00 0 J/kg 3.4 K 0 % 0 % 0 % 0 m²/s² 0 0 4 3
06:00 0 J/kg 3.3 K 0 % 0 % 0 % 0 m²/s² 0 0 3.6 3
07:00 0 J/kg 3.1 K 0 % 0 % 0 % 0 m²/s² 0 0 3.43 3
08:00 0 J/kg 3.0 K 0 % 0 % 0 % 0 m²/s² 0 0 3.24 61
09:00 0 J/kg 2.0 K 0 % 0 % 0 % 0 m²/s² 0 0 2.21 61
10:00 0 J/kg 1.7 K 0 % 0 % 0 % 0 m²/s² 0 0 1.79 61
11:00 0 J/kg 2.0 K 0 % 0 % 0 % 0 m²/s² 0 0 2.21 61
12:00 0 J/kg 1.8 K 0 % 0 % 0 % 0 m²/s² 0 0 1.92 61
13:00 0 J/kg 1.7 K 0 % 0 % 0 % 0 m²/s² 0 0 1.88 61
14:00 1 J/kg 1.7 K 0 % 0 % 0 % 0 m²/s² 0 0 1.91 61
15:00 2 J/kg 2.7 K 0 % 0 % 0 % 0 m²/s² 0 0 3.36 61
16:00 3 J/kg 3.5 K 0 % 0 % 0 % 0 m²/s² 0 0 4.37 3
17:00 0 J/kg 4.6 K 0 % 0 % 0 % 0 m²/s² 0 0 5.89 3
18:00 0 J/kg 5.0 K 0 % 0 % 0 % 0 m²/s² 0 0 6.98 3
19:00 0 J/kg 5.1 K 0 % 0 % 0 % 0 m²/s² 0 0 7.77 3
20:00 1 J/kg 5.1 K 0 % 0 % 0 % 0 m²/s² 0 0 8.31 61
21:00 1 J/kg 5.7 K 0 % 0 % 0 % 0 m²/s² 0 0 9.75 61
22:00 0 J/kg 5.4 K 0 % 0 % 0 % 0 m²/s² 0 0 10.59 61
23:00 0 J/kg 5.0 K 0 % 0 % 0 % 0 m²/s² 0 0 8.63 3
 03:33     23:38    Daglengte: 20:05 Vrijdag 21 Jun
00:00 0 J/kg 4.6 K 0 % 0 % 0 % 0 m²/s² 0 0 7.36 3
01:00 8 J/kg 4.3 K 0 % 0 % 0 % 0 m²/s² 0 0 6.28 3
02:00 16 J/kg 4.4 K 0 % 0 % 0 % 0 m²/s² 0 0 6.65 3
03:00 7 J/kg 4.8 K 0 % 0 % 0 % 0 m²/s² 0 0 8.55 3
04:00 1 J/kg 5.9 K 0 % 0 % 0 % 0 m²/s² 0 0 10.49 80
05:00 0 J/kg 6.0 K 0 % 0 % 0 % 0 m²/s² 0 0 10.02 80
06:00 0 J/kg 3.8 K 0 % 0 % 0 % 0 m²/s² 0 0 6.62 80
07:00 0 J/kg 2.4 K 0 % 0 % 0 % 0 m²/s² 0 0 4.77 3
08:00 13 J/kg 2.2 K 0 % 0 % 0 % 0 m²/s² 0 0 5.68 3
09:00 96 J/kg 0.9 K 0 % 0 % 0 % 0 m²/s² 0 0 3.63 3
10:00 193 J/kg 0.0 K 0 % 0 % 0 % 0 m²/s² 0 0 2.73 3
11:00 193 J/kg -0.1 K 0 % 0 % 0 % 0 m²/s² 0 0 2 2
12:00 257 J/kg -0.8 K 0 % 0 % 0 % 0 m²/s² 0 0 0.76 80
13:00 423 J/kg -1.7 K 0 % 0 % 0 % 0 m²/s² 0 0 -0.23 80
14:00 418 J/kg -1.8 K 0 % 0 % 0 % 0 m²/s² 0 0 -0.66 80
15:00 422 J/kg -1.9 K 0 % 0 % 0 % 0 m²/s² 0 0 -0.43 80
16:00 267 J/kg -1.1 K 0 % 0 % 0 % 0 m²/s² 0 0 -0.11 80
17:00 139 J/kg -0.3 K 0 % 0 % 0 % 0 m²/s² 0 0 1.2 80
18:00 248 J/kg -0.8 K 0 % 0 % 0 % 0 m²/s² 0 0 0.88 80
19:00 220 J/kg -0.4 K 0 % 0 % 0 % 0 m²/s² 0 0 1.55 80
20:00 142 J/kg 0.2 K 0 % 0 % 0 % 0 m²/s² 0 0 2.36 61
21:00 75 J/kg 0.8 K 0 % 0 % 0 % 0 m²/s² 0 0 2.63 80
22:00 49 J/kg 1.1 K 0 % 0 % 0 % 0 m²/s² 0 0 2.45 80
23:00 38 J/kg 1.4 K 0 % 0 % 0 % 0 m²/s² 0 0 2.96 3
 03:33     23:38    Daglengte: 20:05 Zaterdag 22 Jun
00:00 24 J/kg 2.0 K 0 % 0 % 0 % 0 m²/s² 0 0 3.35 80
01:00 8 J/kg 2.6 K 0 % 0 % 0 % 0 m²/s² 0 0 2.99 80
02:00 24 J/kg 2.9 K 0 % 0 % 0 % 0 m²/s² 0 0 3.17 80
03:00 22 J/kg 2.6 K 0 % 0 % 0 % 0 m²/s² 0 0 2.84 80
04:00 20 J/kg 3.3 K 0 % 0 % 0 % 0 m²/s² 0 0 3.63 3
05:00 64 J/kg 2.9 K 0 % 0 % 0 % 0 m²/s² 0 0 3.29 3
06:00 56 J/kg 3.6 K 0 % 0 % 0 % 0 m²/s² 0 0 4.26 3
07:00 92 J/kg 3.4 K 0 % 0 % 0 % 0 m²/s² 0 0 4.36 3
08:00 110 J/kg 3.6 K 0 % 0 % 0 % 0 m²/s² 0 0 5.07 61
09:00 97 J/kg 3.7 K 0 % 0 % 0 % 0 m²/s² 0 0 5.8 61
10:00 107 J/kg 3.4 K 0 % 0 % 0 % 0 m²/s² 0 0 5.92 1
11:00 106 J/kg 3.2 K 0 % 0 % 0 % 0 m²/s² 0 0 6.17 3
12:00 107 J/kg 2.9 K 0 % 0 % 0 % 0 m²/s² 0 0 5.54 80
13:00 104 J/kg 2.4 K 0 % 0 % 0 % 0 m²/s² 0 0 4.56 3
Temp Baro Wind Neerslag
  EWN Forecast EWN WRFDA DWD ICON FMI HIRLAM MET Norway GFS
 03:32     23:37    Daglengte: 20:05 Vandaag
14:00 16.2° 1009.8 hPa 1.7 m/s 0.0 mm 15.3° 1009.2 hPa 4.4 m/s 0.1 mm 15.7° 1009.8 hPa 1.7 m/s -1.9 mm 14.5° 1009.9 hPa 0.4 m/s 0.0 mm 17.8° 1010.0 hPa 1.6 m/s 0.0 mm 16.1° 1009.7 hPa 2.7 m/s
17:00 16.6° 1009.4 hPa 2.7 m/s 0.0 mm 15.5° 1008.8 hPa 3.2 m/s 0.2 mm 16.2° 1009.6 hPa 2.5 m/s 0.1 mm 14.8° 1010.0 hPa 2.8 m/s 0.0 mm 17.9° 1009.4 hPa 2.5 m/s 0.0 mm 14.8° 1008.9 hPa 3.6 m/s
20:00 16.2° 1008.2 hPa 3.0 m/s 0.0 mm 15.8° 1007.7 hPa 2.5 m/s 0.2 mm 15.5° 1008.0 hPa 3.6 m/s 0.1 mm 14.6° 1009.2 hPa 1.6 m/s 0.0 mm 18.1° 1008.1 hPa 2.8 m/s 0.0 mm 13.9° 1008.0 hPa 1.6 m/s
23:00 14.7° 1007.4 hPa 2.4 m/s 0.0 mm 13.3° 1006.7 hPa 2.5 m/s 0.2 mm 13.8° 1007.6 hPa 1.4 m/s 0.1 mm 14.2° 1008.8 hPa 2.6 m/s 0.0 mm 15.6° 1007.3 hPa 2.1 m/s 0.0 mm 12.0° 1007.6 hPa 1.1 m/s
 03:33     23:37    Daglengte: 20:04 Morgen
02:00 13.5° 1005.6 hPa 1.9 m/s 0.0 mm 12.2° 1004.0 hPa 2.2 m/s 0.2 mm 12.7° 1005.7 hPa 0.6 m/s 0.2 mm 12.8° 1007.7 hPa 1.0 m/s 0.0 mm 14.1° 1005.5 hPa 2.1 m/s 0.0 mm 11.5° 1006.2 hPa 0.7 m/s
05:00 13.3° 1003.7 hPa 1.2 m/s 0.0 mm 13.3° 1001.1 hPa 1.5 m/s 0.2 mm 12.3° 1003.8 hPa 0.5 m/s 0.0 mm 12.4° 1006.3 hPa 0.5 m/s 0.0 mm 13.5° 1003.5 hPa 1.3 m/s 0.0 mm 11.7° 1003.7 hPa 0.8 m/s
08:00 15.0° 1001.8 hPa 1.1 m/s 0.0 mm 15.3° 999.3 hPa 1.8 m/s 0.2 mm 13.5° 1001.7 hPa 0.7 m/s 0.1 mm 13.7° 1004.6 hPa 1.1 m/s 0.0 mm 15.3° 1001.4 hPa 0.9 m/s 0.0 mm 14.0° 1001.5 hPa 0.2 m/s
11:00 16.2° 1000.9 hPa 1.5 m/s 0.0 mm 13.9° 998.2 hPa 1.7 m/s 0.5 mm 13.9° 1000.8 hPa 1.4 m/s 0.6 mm 16.5° 1003.1 hPa 1.9 m/s 0.0 mm 16.8° 1000.2 hPa 0.3 m/s 0.0 mm 12.6° 1000.5 hPa 2.3 m/s
14:00 17.1° 1001.3 hPa 3.8 m/s 0.0 mm 14.4° 998.6 hPa 4.0 m/s 3.0 mm 13.8° 1001.5 hPa 2.0 m/s 2.1 mm 17.9° 1002.9 hPa 4.6 m/s 0.0 mm 19.5° 999.9 hPa 3.2 m/s 0.0 mm 12.8° 1000.4 hPa 1.8 m/s
17:00 14.9° 1002.6 hPa 4.5 m/s 0.0 mm 14.0° 999.9 hPa 7.0 m/s 4.8 mm 13.4° 1003.0 hPa 2.9 m/s 0.1 mm 15.1° 1003.3 hPa 4.4 m/s 0.0 mm 16.1° 1001.0 hPa 4.3 m/s 0.0 mm 11.4° 1001.2 hPa 1.8 m/s
20:00 13.6° 1003.3 hPa 3.9 m/s 0.0 mm 13.0° 1000.8 hPa 6.7 m/s 4.8 mm 12.2° 1004.1 hPa 3.0 m/s 0.2 mm 14.1° 1003.3 hPa 2.5 m/s 0.0 mm 14.7° 1002.5 hPa 4.3 m/s 0.7 mm 11.0° 1001.8 hPa 1.9 m/s
23:00 12.6° 1004.0 hPa 1.9 m/s 1.0 mm 11.2° 1001.7 hPa 3.4 m/s 4.8 mm 11.3° 1005.0 hPa 1.7 m/s 0.6 mm 12.7° 1003.9 hPa 3.3 m/s 0.0 mm 13.6° 1003.4 hPa 1.2 m/s 0.0 mm 11.0° 1002.8 hPa 0.9 m/s
 03:33     23:38    Daglengte: 20:05 Vrijdag 21 Jun
02:00 12.2° 1004.9 hPa 2.8 m/s 0.0 mm 10.7° 1001.9 hPa 3.4 m/s 4.9 mm 11.3° 1005.4 hPa 1.5 m/s 0.0 mm 12.2° 1005.0 hPa 3.3 m/s 0.0 mm 12.6° 1004.7 hPa 2.5 m/s 0.0 mm 11.0° 1003.8 hPa 1.9 m/s
05:00 11.8° 1005.7 hPa 2.6 m/s 1.1 mm 10.2° 1002.5 hPa 4.6 m/s 5.0 mm 11.0° 1006.3 hPa 1.2 m/s 0.4 mm 12.3° 1005.9 hPa 4.8 m/s 0.0 mm 11.9° 1005.6 hPa 2.0 m/s 0.0 mm 10.7° 1004.6 hPa 1.4 m/s
08:00 12.4° 1005.8 hPa 2.2 m/s 2.3 mm 13.4° 1002.1 hPa 7.2 m/s 5.0 mm 11.4° 1005.9 hPa 1.1 m/s 0.6 mm 12.2° 1006.1 hPa 2.6 m/s 0.0 mm 12.7° 1005.9 hPa 0.9 m/s 0.0 mm 11.6° 1004.8 hPa 2.6 m/s
11:00 14.3° 1006.0 hPa 1.5 m/s 0.0 mm 14.5° 1003.0 hPa 6.0 m/s 5.0 mm 13.1° 1007.2 hPa 0.7 m/s 0.3 mm 14.5° 1006.0 hPa 0.9 m/s 0.0 mm 14.0° 1005.9 hPa 1.5 m/s
14:00 14.4° 1006.7 hPa 3.8 m/s 0.9 mm 13.9° 1003.5 hPa 6.0 m/s 6.9 mm 13.2° 1007.6 hPa 2.5 m/s 1.7 mm 14.4° 1006.9 hPa 4.3 m/s 0.0 mm 13.0° 1006.7 hPa 4.6 m/s
17:00 13.6° 1007.4 hPa 2.8 m/s 1.6 mm 13.3° 1004.5 hPa 7.5 m/s 9.5 mm 11.9° 1008.5 hPa 2.1 m/s 2.6 mm 14.2° 1007.5 hPa 1.7 m/s 1.3 mm 11.1° 1007.5 hPa 0.9 m/s
20:00 12.6° 1008.1 hPa 5.6 m/s 4.1 mm 12.9° 1004.4 hPa 7.7 m/s 9.9 mm 10.9° 1008.8 hPa 1.7 m/s 2.3 mm 13.5° 1008.2 hPa 6.6 m/s 0.0 mm 11.4° 1008.0 hPa 1.0 m/s
23:00 11.4° 1009.4 hPa 5.0 m/s 3.2 mm 11.6° 1004.9 hPa 6.4 m/s 9.9 mm 10.5° 1009.4 hPa 0.6 m/s 1.3 mm 11.5° 1009.8 hPa 5.9 m/s 0.0 mm 10.2° 1008.8 hPa 0.8 m/s
 03:33     23:38    Daglengte: 20:05 Zaterdag 22 Jun
02:00 10.2° 1010.8 hPa 5.2 m/s 2.7 mm 10.1° 1004.6 hPa 7.2 m/s 10.1 mm 10.0° 1010.0 hPa 1.2 m/s 2.0 mm 10.1° 1011.4 hPa 5.4 m/s 0.5 mm 9.7° 1009.2 hPa 3.4 m/s
05:00 10.5° 1011.3 hPa 6.5 m/s 4.6 mm 10.1° 1005.5 hPa 8.6 m/s 12.9 mm 9.9° 1011.3 hPa 4.4 m/s 0.8 mm 10.6° 1011.6 hPa 6.7 m/s 8.9° 1010.2 hPa 5.4 m/s
08:00 11.0° 1011.8 hPa 7.3 m/s 3.4 mm 10.9° 1007.8 hPa 11.0 m/s 14.1 mm 9.8° 1012.4 hPa 5.1 m/s 0.2 mm 11.0° 1011.9 hPa 8.0 m/s 9.1° 1011.8 hPa 5.2 m/s
11:00 12.0° 1012.9 hPa 8.3 m/s 5.2 mm 12.8° 1009.4 hPa 11.7 m/s 14.2 mm 11.7° 1013.4 hPa 5.8 m/s 0.6 mm 12.0° 1013.2 hPa 8.4 m/s 10.1° 1013.7 hPa 5.4 m/s
14:00 13.1° 1014.1 hPa 8.9 m/s 5.4 mm 14.1° 1011.0 hPa 11.0 m/s 14.3 mm 12.7° 1014.3 hPa 8.1 m/s 1.0 mm 13.0° 1014.6 hPa 8.8 m/s 11.7° 1015.2 hPa 5.2 m/s
17:00 12.0° 1015.5 hPa 8.2 m/s 21.7 mm 11.9° 1015.5 hPa 8.5 m/s 12.4° 1016.4 hPa 5.2 m/s 21.7 mm
20:00 11.3° 1016.0 hPa 7.9 m/s 22.4 mm 11.4° 1015.9 hPa 8.3 m/s 10.8° 1016.9 hPa 3.2 m/s 22.4 mm
23:00 10.8° 1017.0 hPa 7.7 m/s 22.9 mm 10.8° 1017.0 hPa 8.1 m/s 10.9° 1017.9 hPa 4.1 m/s 22.9 mm
 03:33     23:38    Daglengte: 20:05 Zondag 23 Jun
02:00 10.2° 1018.0 hPa 7.5 m/s 23.2 mm 10.2° 1018.0 hPa 7.8 m/s 10.3° 1018.5 hPa 4.2 m/s 23.2 mm
05:00 10.1° 1019.2 hPa 6.9 m/s 23.6 mm 10.1° 1019.2 hPa 7.3 m/s 10.0° 1019.4 hPa 2.4 m/s 23.6 mm
08:00 10.0° 1020.4 hPa 6.6 m/s 25.0 mm 10.0° 1020.4 hPa 6.9 m/s 9.4° 1020.0 hPa 2.9 m/s 25.0 mm
11:00 11.0° 1022.1 hPa 6.4 m/s 26.3 mm 11.1° 1022.2 hPa 6.8 m/s 10.5° 1021.1 hPa 2.3 m/s 26.3 mm
14:00 11.9° 1023.8 hPa 6.4 m/s 27.1 mm 12.1° 1024.0 hPa 6.6 m/s 10.3° 1022.1 hPa 4.1 m/s 27.1 mm
17:00 11.8° 1025.3 hPa 5.7 m/s 27.4 mm 11.9° 1025.5 hPa 5.6 m/s 10.5° 1023.5 hPa 6.9 m/s 27.4 mm
20:00 11.6° 1026.7 hPa 4.6 m/s 27.5 mm 11.7° 1026.9 hPa 4.6 m/s 10.3° 1024.5 hPa 4.7 m/s 27.5 mm
23:00 10.6° 1027.8 hPa 3.4 m/s 27.6 mm 10.7° 1027.9 hPa 3.3 m/s 9.6° 1026.2 hPa 4.0 m/s 27.6 mm
 03:34     23:37    Daglengte: 20:03 Maandag 24 Jun
02:00 9.6° 1028.8 hPa 2.1 m/s 27.6 mm 9.7° 1028.9 hPa 2.0 m/s 9.0° 1027.2 hPa 3.2 m/s 27.6 mm
05:00 10.2° 1028.8 hPa 2.1 m/s 27.7 mm 10.3° 1028.8 hPa 2.0 m/s 8.7° 1028.1 hPa 2.8 m/s 27.7 mm
08:00 10.8° 1028.8 hPa 2.0 m/s 27.7 mm 11.0° 1028.8 hPa 2.0 m/s 8.6° 1028.4 hPa 2.6 m/s 27.7 mm
11:00 12.3° 1029.3 hPa 2.5 m/s 27.7 mm 12.6° 1029.3 hPa 2.5 m/s 9.6° 1029.0 hPa 2.0 m/s 27.7 mm
14:00 13.8° 1029.8 hPa 3.0 m/s 27.7 mm 14.1° 1029.9 hPa 3.1 m/s 10.4° 1029.1 hPa 2.3 m/s 27.7 mm
17:00 13.2° 1029.9 hPa 3.3 m/s 27.7 mm 13.4° 1030.0 hPa 3.4 m/s 11.5° 1028.6 hPa 2.4 m/s 27.7 mm
20:00 12.6° 1030.0 hPa 3.5 m/s 27.7 mm 12.7° 1030.1 hPa 3.6 m/s 11.8° 1028.4 hPa 1.8 m/s 27.7 mm
23:00 10.8° 1030.1 hPa 3.1 m/s 27.7 mm 10.9° 1030.2 hPa 3.1 m/s 9.5° 1028.9 hPa 2.9 m/s 27.7 mm
 03:35     23:37    Daglengte: 20:02 Dinsdag 25 Jun
02:00 9.1° 1030.2 hPa 2.6 m/s 27.7 mm 9.2° 1030.3 hPa 2.6 m/s 8.1° 1028.8 hPa 3.1 m/s 27.7 mm
05:00 10.2° 1029.4 hPa 2.4 m/s 27.7 mm 10.3° 1029.4 hPa 2.4 m/s 8.6° 1028.4 hPa 2.2 m/s 27.7 mm
08:00 11.4° 1028.6 hPa 2.2 m/s 27.7 mm 11.4° 1028.6 hPa 2.2 m/s 11.8° 1028.1 hPa 2.0 m/s 27.7 mm
11:00 14.4° 1028.2 hPa 2.6 m/s 27.7 mm 14.4° 1028.2 hPa 2.7 m/s 14.6° 1028.3 hPa 2.3 m/s 27.7 mm
14:00 17.3° 1027.8 hPa 3.1 m/s 27.7 mm 17.4° 1027.7 hPa 3.1 m/s 16.1° 1028.5 hPa 2.8 m/s 27.7 mm
17:00 16.1° 1027.5 hPa 3.0 m/s 27.7 mm 16.1° 1027.4 hPa 3.0 m/s 15.8° 1028.9 hPa 3.8 m/s 27.7 mm
20:00 14.7° 1027.3 hPa 2.9 m/s 27.7 mm 14.8° 1027.1 hPa 2.8 m/s 13.7° 1029.1 hPa 3.8 m/s 27.7 mm
23:00 12.4° 1027.1 hPa 2.3 m/s 27.7 mm 12.6° 1026.8 hPa 2.2 m/s 10.4° 1030.4 hPa 3.3 m/s 27.7 mm
 03:36     23:37    Daglengte: 20:01 Woensdag 26 Jun
02:00 10.2° 1026.9 hPa 1.7 m/s 27.7 mm 10.3° 1026.6 hPa 1.6 m/s 8.6° 1030.5 hPa 2.6 m/s 27.7 mm
05:00 10.8° 1026.6 hPa 1.8 m/s 27.7 mm 10.9° 1026.2 hPa 1.8 m/s 8.6° 1030.2 hPa 2.4 m/s 27.7 mm
08:00 11.6° 1026.2 hPa 1.9 m/s 27.7 mm 11.6° 1025.9 hPa 1.9 m/s 11.7° 1029.7 hPa 2.1 m/s 27.7 mm
11:00 13.5° 1025.9 hPa 2.5 m/s 27.7 mm 13.4° 1025.6 hPa 2.5 m/s 14.7° 1029.4 hPa 2.4 m/s 27.7 mm
14:00 15.3° 1025.5 hPa 3.2 m/s 27.7 mm 15.2° 1025.2 hPa 3.2 m/s 15.8° 1028.8 hPa 3.7 m/s 27.7 mm
20:00 12.8° 1025.0 hPa 2.5 m/s 27.7 mm 12.7° 1024.7 hPa 2.4 m/s 13.9° 1028.0 hPa 3.0 m/s 27.7 mm
 03:36     23:36    Daglengte: 20:00 Donderdag 27 Jun
02:00 10.3° 1023.3 hPa 1.6 m/s 27.7 mm 10.3° 1022.9 hPa 1.5 m/s 9.9° 1027.2 hPa 2.3 m/s 27.7 mm
08:00 11.6° 1021.4 hPa 3.1 m/s 27.7 mm 11.5° 1021.0 hPa 3.3 m/s 13.0° 1025.4 hPa 1.4 m/s 27.7 mm
14:00 14.2° 1020.1 hPa 3.8 m/s 27.7 mm 14.0° 1019.7 hPa 3.9 m/s 16.5° 1023.9 hPa 2.6 m/s 27.7 mm
20:00 12.4° 1020.3 hPa 3.6 m/s 27.7 mm 12.2° 1020.1 hPa 3.7 m/s 14.2° 1022.5 hPa 2.0 m/s 27.7 mm
 03:37     23:36    Daglengte: 19:59 Vrijdag 28 Jun
02:00 10.0° 1018.0 hPa 2.1 m/s 27.7 mm 10.0° 1017.7 hPa 2.2 m/s 10.4° 1021.5 hPa 0.6 m/s 27.7 mm
08:00 11.0° 1017.4 hPa 2.4 m/s 27.7 mm 10.8° 1017.2 hPa 2.6 m/s 13.3° 1019.5 hPa 0.7 m/s 27.7 mm
14:00 13.6° 1016.9 hPa 3.5 m/s 27.7 mm 13.2° 1016.9 hPa 3.7 m/s 17.6° 1016.6 hPa 1.6 m/s 27.7 mm
20:00 12.4° 1017.6 hPa 3.6 m/s 27.7 mm 12.0° 1018.0 hPa 3.6 m/s 16.5° 1013.3 hPa 3.5 m/s 27.7 mm
 03:39     23:35    Daglengte: 19:56 Zaterdag 29 Jun
02:00 12.3° 1010.3 hPa 2.4 m/s 27.7 mm 12.3° 1010.3 hPa 2.4 m/s 27.7 mm
08:00 13.5° 1012.6 hPa 0.7 m/s 0.8 mm
14:00 17.1° 1011.8 hPa 2.3 m/s 0.8 mm
20:00 15.0° 1011.9 hPa 2.8 m/s 1.3 mm
 03:40     23:34    Daglengte: 19:54 Zondag 30 Jun
02:00 10.8° 1012.3 hPa 1.2 m/s 0.7 mm
08:00 13.4° 1011.2 hPa 1.1 m/s 0.3 mm
14:00 16.7° 1010.6 hPa 2.5 m/s 0.7 mm
20:00 15.2° 1010.4 hPa 2.8 m/s 1.2 mm
 03:41     23:33    Daglengte: 19:52 Maandag 01 Jul
02:00 10.8° 1011.1 hPa 0.9 m/s 1.6 mm
08:00 12.8° 1010.7 hPa 1.0 m/s 1.1 mm
14:00 16.2° 1010.5 hPa 2.6 m/s 0.9 mm
20:00 14.7° 1010.9 hPa 2.9 m/s 0.8 mm
 03:43     23:32    Daglengte: 19:49 Dinsdag 02 Jul
02:00 10.5° 1011.6 hPa 1.2 m/s 0.5 mm
08:00 12.8° 1011.1 hPa 1.2 m/s 0.6 mm
14:00 16.6° 1010.8 hPa 2.6 m/s 0.6 mm
20:00 15.2° 1011.1 hPa 2.8 m/s 0.7 mm
 03:44     23:30    Daglengte: 19:46 Woensdag 03 Jul
02:00 10.8° 1012.0 hPa 0.9 m/s 0.5 mm
08:00 12.8° 1011.8 hPa 1.0 m/s 0.5 mm
14:00 16.2° 1011.8 hPa 2.6 m/s 0.6 mm
20:00 14.6° 1012.2 hPa 3.0 m/s 0.6 mm
 03:46     23:29    Daglengte: 19:43 Donderdag 04 Jul
02:00 10.6° 1013.3 hPa 1.0 m/s 0.3 mm
08:00 12.8° 1013.4 hPa 0.8 m/s 0.3 mm